Location: Unspecified
(50.7693°N, 0.0000°E)
Time: 20:33:15
(UTC+00:00)

deb Explorer IX - Pass Details

Date: 23 June 2019
Orbit: 539 x 1112 km, 38.8° (Epoch: 17 July)

Event Time Altitude Azimuth Distance (km) Brightness Sun altitude
Rises 14:43:15 0° 240° (WSW) 3,849 ? 48.7°
Reaches altitude 10° 14:46:16 10° 231° (SW) 2,937 ? 48.2°
Maximum altitude 14:52:27 31° 173° (S) 1,846 ? 47.3°
Drops below altitude 10° 14:58:39 10° 115° (ESE) 2,938 ? 46.4°
Sets 15:01:39 0° 105° (ESE) 3,851 ? 46.0°
